Flag for Germany Weather past 2 weeks in Neuburg an der Donau, Bavaria, Germany

Now
50 °F

Cool.


Feels Like: 50 °F
Forecast: 47 / 68 °F
Wind: 1 mph from Southwest

Location: Neuburg / Donau

Current Time: Aug 23, 2014 at 1:53:08 AM

Latest Report: Aug 23, 2014 at 1:20 AM


Visibility: N/A

Pressure: 30.01 "Hg

Humidity: 88%

Dew point: 46 °F

Location of Neuburg an der DonauLocation

Historic Weather in Neuburg an der Donau — Graph

°F

Neuburg an der Donau temperature yesterday

Maximum temperature yesterday: 70 °F (at 5:20 PM)
Minimum temperature yesterday: 46 °F (at 4:20 AM)
Average temperature yesterday: 58 °F

Past Weeks' High & Low Weather Summary

 TemperatureHumidityPressure
High86 °F (Aug 10, 4:20 PM)100% (Aug 8, 2:20 AM)30.15 "Hg (Aug 8, 2:20 AM)
Low46 °F (Aug 22, 4:20 AM)35% (Aug 21, 5:20 PM)29.68 "Hg (Aug 13, 3:20 PM)
Average61 °F74%29.96 "Hg
* Reported Aug 8 12:20 AM — Aug 23 12:20 AM, Neuburg an der Donau, Weather by CustomWeather, © 2014

Note: Actual official high and low records may vary slightly from our data, if they occured in-between our weather recording intervals... More about our weather records

Advertising

Neuburg an der Donau weather history for previous 24 hours

 ConditionsComfort  
Time TempWeatherWind HumidityBarometerVisibility
12:20 AM
Aug 23
50 °FCool.1 mph88%30.01 "HgN/A
11:20 PM
Aug 22
52 °FCool.No wind82%29.98 "HgN/A
10:20 PM55 °FCool.No wind72%29.98 "HgN/A
9:20 PM59 °FCool.No wind63%29.98 "HgN/A
8:20 PM63 °FMild.3 mph56%29.98 "HgN/A
7:20 PM68 °FMild.3 mph46%29.95 "HgN/A
6:20 PM68 °FMild.8 mph43%29.95 "HgN/A
5:20 PM70 °FMild.7 mph40%29.95 "HgN/A
4:20 PM68 °FMild.7 mph40%29.98 "HgN/A
3:20 PM68 °FMild.6 mph43%29.98 "HgN/A
2:20 PM66 °FMild.9 mph46%30.01 "HgN/A
1:20 PM68 °FMild.5 mph43%30.01 "HgN/A
12:20 PM64 °FMild.3 mph52%30.01 "HgN/A
11:20 AM63 °FPartly sunny.1 mph56%30.01 "HgN/A
10:20 AM61 °FPartly sunny.1 mph59%30.04 "HgN/A
9:20 AM55 °FPartly sunny.2 mph72%30.01 "HgN/A
8:20 AM54 °FPartly sunny.1 mph82%30.01 "HgN/A
7:20 AM50 °FScattered clouds.No wind88%30.01 "HgN/A
6:20 AM46 °FCool.1 mph87%30.01 "HgN/A
5:20 AM46 °FCool.2 mph93%30.01 "HgN/A
4:20 AM46 °FCool.No wind93%30.01 "HgN/A
3:20 AM48 °FCool.1 mph87%30.01 "HgN/A
2:20 AM52 °FCool.2 mph82%30.01 "HgN/A
1:20 AM52 °FCool.1 mph82%30.04 "HgN/A
Weather by CustomWeather, © 2014

See weather overviewHow to use our weather pages